Time,TemperatureF,DewpointF,PressureIn,WindDirection,WindDirectionDegrees,WindSpeedMPH,WindSpeedGustMPH,Humidity,HourlyPrecipIn,Conditions,Clouds,dailyrainin,SoftwareType,DateUTC
2013-11-13 00:11:00,46.0,19.0,-100.00,ESE,116,0.0,7.0,34,0.00,,,-99.99,,2013-11-13 08:11:00,
2013-11-13 00:52:00,46.0,19.0,-100.00,NW,319,0.0,1.0,33,0.00,,,-99.99,,2013-11-13 08:52:00,
2013-11-13 01:03:00,46.0,19.0,-100.00,SSW,192,1.0,3.0,33,0.00,,,-99.99,,2013-11-13 09:03:00,
2013-11-13 01:21:00,47.0,18.0,-100.00,SSW,192,1.0,3.0,31,0.00,,,-99.99,,2013-11-13 09:21:00,
2013-11-13 01:43:00,45.0,19.0,-100.00,West,260,0.0,6.0,35,0.00,,,-99.99,,2013-11-13 09:43:00,
2013-11-13 01:52:00,45.0,19.0,-100.00,SSW,203,0.0,7.0,35,0.00,,,-99.99,,2013-11-13 09:52:00,
2013-11-13 02:13:00,46.0,19.0,-100.00,SSW,203,0.0,7.0,34,0.00,,,-99.99,,2013-11-13 10:13:00,
2013-11-13 04:11:00,43.0,20.0,-100.00,SSW,196,0.0,6.0,39,0.00,,,-99.99,,2013-11-13 12:11:00,
2013-11-13 04:41:00,42.0,20.0,-100.00,South,186,0.0,1.0,41,0.00,,,-99.99,,2013-11-13 12:41:00,
2013-11-13 11:21:00,55.0,24.0,-100.00,SE,124,2.0,5.0,29,0.00,,,-99.99,,2013-11-13 19:21:00,
2013-11-13 11:32:00,55.0,24.0,-100.00,ESE,106,2.0,6.0,29,0.00,,,-99.99,,2013-11-13 19:32:00,
2013-11-13 11:52:00,57.0,23.0,-100.00,ESE,107,2.0,7.0,28,0.00,,,-99.99,,2013-11-13 19:52:00,
2013-11-13 12:11:00,58.0,23.0,-100.00,ESE,107,2.0,7.0,26,0.00,,,-99.99,,2013-11-13 20:11:00,
2013-11-13 12:22:00,58.0,23.0,-100.00,ESE,112,2.0,10.0,25,0.00,,,-99.99,,2013-11-13 20:22:00,
2013-11-13 12:32:00,58.0,23.0,-100.00,ESE,112,2.0,10.0,25,0.00,,,-99.99,,2013-11-13 20:32:00,
2013-11-13 13:21:00,61.0,23.0,-100.00,East,88,1.0,5.0,23,0.00,,,-99.99,,2013-11-13 21:21:00,
2013-11-13 13:33:00,61.0,23.0,-100.00,East,88,1.0,5.0,23,0.00,,,-99.99,,2013-11-13 21:33:00,
2013-11-13 13:43:00,61.0,23.0,-100.00,East,92,2.0,10.0,23,0.00,,,-99.99,,2013-11-13 21:43:00,
2013-11-13 13:53:00,62.0,23.0,-100.00,East,92,2.0,10.0,23,0.00,,,-99.99,,2013-11-13 21:53:00,
2013-11-13 14:03:00,62.0,23.0,-100.00,East,92,2.0,10.0,23,0.00,,,-99.99,,2013-11-13 22:03:00,
2013-11-13 14:23:00,64.0,21.0,-100.00,ESE,114,1.0,7.0,20,0.00,,,-99.99,,2013-11-13 22:23:00,
2013-11-13 14:42:00,63.0,22.0,-100.00,NE,54,1.0,5.0,21,0.00,,,-99.99,,2013-11-13 22:42:00,
2013-11-13 14:53:00,61.0,23.0,-100.00,NE,42,3.0,8.0,23,0.00,,,-99.99,,2013-11-13 22:53:00,
2013-11-13 15:02:00,61.0,23.0,-100.00,NE,42,3.0,8.0,23,0.00,,,-99.99,,2013-11-13 23:02:00,
2013-11-13 15:22:00,60.0,23.0,-100.00,NNE,32,3.0,8.0,24,0.00,,,-99.99,,2013-11-13 23:22:00,
2013-11-13 15:42:00,59.0,21.0,-100.00,NNE,17,5.0,14.0,23,0.00,,,-99.99,,2013-11-13 23:42:00,
2013-11-13 15:53:00,59.0,22.0,-100.00,NNE,16,5.0,17.0,24,0.00,,,-99.99,,2013-11-13 23:53:00,
2013-11-13 16:02:00,59.0,22.0,-100.00,NNE,16,5.0,17.0,24,0.00,,,-99.99,,2013-11-14 00:02:00,
2013-11-13 16:11:00,59.0,22.0,-100.00,NNE,16,5.0,17.0,24,0.00,,,-99.99,,2013-11-14 00:11:00,
2013-11-13 16:22:00,59.0,22.0,-100.00,NNE,16,5.0,17.0,24,0.00,,,-99.99,,2013-11-14 00:22:00,